Location: Oshawa
(43.9000°N, 78.8670°W)
Time: 08:49:40
(UTC-05:00)

Cosmos 1500 - Visible Passes

Search period start: 23 February 2017 00:00
Search period end: 05 March 2017 00:00
Orbit: 502 x 526 km, 82.5° (Epoch: 23 February)

Date Brightness Start Highest point End Pass type
(mag) Time Alt. Az. Time Alt. Az. Time Alt. Az.
28 Feb 6.1 06:19:56 10° NNE 06:22:49 20° ENE 06:25:42 10° ESE visible
01 Mar 6.2 06:04:43 10° NNE 06:07:15 17° ENE 06:09:48 10° ESE visible
01 Mar 3.0 19:54:49 10° S 19:58:36 82° E 20:02:23 10° N visible
02 Mar 6.4 05:49:35 10° NE 05:51:41 14° ENE 05:53:47 10° ESE visible
02 Mar 3.0 19:39:22 10° S 19:43:06 65° E 19:46:51 10° NNE visible
03 Mar 6.6 05:34:39 10° NE 05:36:06 12° ENE 05:37:31 10° E visible
03 Mar 3.2 19:23:57 10° S 19:27:38 51° E 19:31:18 10° NNE visible
03 Mar 6.5 21:02:16 10° W 21:03:38 12° WNW 21:05:00 10° NW visible
04 Mar 3.5 19:08:35 10° SSE 19:12:09 41° E 19:15:43 10° NNE visible
04 Mar 6.4 20:46:00 10° WSW 20:48:03 14° WNW 20:50:06 10° NW visible
